Regional Weather Roundup
Issued by NWS

Home | Current Version | Previous Version | Graphics & Text | Print | Product List | Glossary On
Versions: 1 2 3 4 5 6 7 8 9 10 11 12 13 14 15 16 17 18 19 20 21 22 23 24 25 26 27 28 29 30 31 32 33 34 35 36 37 38 39 40 41 42 43 44 45 46 47 48 49 50
000
ASUS43 KDTX 012201
RWRMI
MICHIGAN HOURLY REGIONAL WEATHER ROUNDUP
NATIONAL WEATHER SERVICE DETROIT/PONTIAC MI
500 PM EST SUN FEB 01 2015

NOTE: "FAIR" INDICATES FEW OR NO CLOUDS BELOW 12,000 FEET WITH NO
SIGNIFICANT WEATHER AND/OR OBSTRUCTION TO VISIBILITY.

MIZ047>049-052>055-059>063-066>070-074>076-081>083-012300-
SOUTHEAST LOWER MICHIGAN

CITY           SKY/WX    TMP DP  RH WIND       PRES   REMARKS
ADRIAN         SNOW      22  20  92 E20G29    29.77F VSB 1/4 WCI   7
ALMA           LGT SNOW  15  12  90 NE25G32   29.94F VSB 1   WCI  -5
ANN ARBOR      SNOW      21  17  84 NE13G24   29.80F VSB 1/2 WCI   9
BAD AXE        LGT SNOW  15  12  88 NE16G26   30.00F WCI  -1
CARO           LGT SNOW  16  11  83 NE9G22    29.97S WCI   4
DETROIT CITY   SNOW      21  16  81 NE17G28   29.85F VSB 1/2 WCI   7
DETROIT        SNOW      21  18  88 NE16G25   29.84F VSB 1/2 WCI   7
FLINT          SNOW      18  12  77 NE17G28   29.90F VSB 1/2 WCI   3
GROSSE ILE     LGT SNOW  21  19  93 NE23G29   29.81F VSB 3/4 WCI   5
HILLSDALE      SNOW      22  20  93 NE15G24   29.73F VSB 1/2 WCI   9
HOWELL         LGT SNOW  16  13  90 NE18      29.84S VSB 3/4 WCI  -1

CITY           SKY/WX    TMP DP  RH WIND       PRES   REMARKS
JACKSON        SNOW      18  15  88 NE9G18    29.79F VSB 1/4 WCI   7
LAMBERTVILLE   SNOW      28  25  86 E10G23    29.77F VSB 1/4 WCI  19
LANSING        SNOW      14  10  84 NE21G30   29.88S VSB 1/4 WCI  -4
LAPEER         LGT SNOW  17  14  86 NE15G24   29.91F WCI   2
MASON          LGT SNOW  15  12  86 NE16G29   29.84F WCI   0
MONROE         SNOW      23  21  93 NE15G22   29.78F VSB 1/4 WCI  10
PONTIAC        HVY SNOW  18  14  84 NE14G24   29.84F VSB 1/4 WCI   4
PORT HOPE        N/A     17  12  80 E23       30.03F WCI  -1
PORT HURON     LGT SNOW  18  16  93 NE14G20   29.92F WCI   4
TRI CITIES     SNOW      16  12  84 NE28G36   29.97F VSB 1/2 WCI  -4
TROY           SNOW      21  18  86 NE13G21   29.87F VSB 1/4 WCI   9
SAGINAW HB     LGT SNOW  18  14  86 NE23G32   29.97F WCI   0
$$
MIZ043>046-050>051-056>058-064>065-071>073-077>080-012300-
SOUTHWEST LOWER MICHIGAN

CITY           SKY/WX    TMP DP  RH WIND       PRES   REMARKS
BATTLE CREEK   HVY SNOW  18  13  80 NE17G26   29.79F VSB 1/4 WCI   3
BENTON HARBOR  HVY SNOW  18  16  92 E20G25    29.75F VSB 1/4 WCI   2
BIG RAPIDS     LGT SNOW  13   9  84 NE9G22    29.94F WCI   1
COLDWATER      LGT SNOW  21  19  93 NE17      29.74F VSB 3/4 WCI   7
FREMONT        LGT SNOW  14  10  81 NE15G22   29.92F WCI  -1
HOLLAND        SNOW      17  12  80 NE15G26   29.84F VSB 1/2 WCI   2
GRAND RAPIDS   SNOW      15  11  83 NE26G36   29.86F VSB 1/2 WCI  -4
IONIA          LGT SNOW  16  12  86 NE24G32   29.87F VSB 3/4 WCI  -3
KALAMAZOO      HVY SNOW  18  13  80 NE15G26   29.79F VSB 1/4 WCI   4
LUDINGTON      LGT SNOW  16  10  77 NE12G20   29.99F WCI   2
MARSHALL       SNOW      16  13  89 NE10G18   29.78F VSB 1/2 WCI   3
MOUNT PLEASANT LGT SNOW  13   8  81 NE20G25   29.97F WCI  -5
MUSKEGON       SNOW      16  11  80 NE20G26   29.90F VSB 1/2 WCI  -1
SOUTH HAVEN    SNOW      19  15  85 E16G29    29.77F VSB 1/2 WCI   4
$$
MIZ016>042-012300-
NORTHERN LOWER MICHIGAN

CITY           SKY/WX    TMP DP  RH WIND       PRES   REMARKS
ALPENA         LGT SNOW   6   1  80 NE10G20   30.16F WCI  -9
BEAVER ISLAND  CLOUDY     1 -10  57 CALM      30.19F
BELLAIRE       CLOUDY    10  -2  58 NE8       30.12F WCI  -2
CADILLAC       CLOUDY     9   2  74 NE10G16   29.97F HAZE    WCI  -5
CHARLEVOIX     CLOUDY     7   0  73 E13G20    30.17F WCI -10
FRANKFORT      CLOUDY    11   2  66 NE12G18   30.08S WCI  -3
GAYLORD        CLOUDY     4  -3  73 NE13G20   30.05F WCI -13
GRAYLING       CLOUDY     8   0  70 NE15G24   30.05F WCI  -9
HARBOR SPRINGS CLOUDY     5  -2  72 NE12G17   30.14F WCI -11
HOUGHTON LAKE  LGT SNOW   9   2  73 NE12      30.02F WCI  -6
MANISTEE       CLOUDY    12   1  62 NE14G25   30.03F WCI  -3
OSCODA         LGT SNOW  13   8  79 NE18G26   30.08F WCI  -4
PELLSTON       CLOUDY     3  -3  76 NE14      30.18F WCI -15
TRAVERSE CITY  CLOUDY    11   0  61 E12       30.09F WCI  -3
$$
MIZ007>008-015-012300-
EASTERN UPPER MICHIGAN

CITY           SKY/WX    TMP DP  RH WIND       PRES   REMARKS
KINROSS        MOCLDY     0 -11  60 NE7       30.21F WCI -13
MACKINAC ISLAN CLOUDY     2 -11  55 NE10      30.19F WCI -14
NEWBERRY       MOCLDY     0 -10  63 NE9       30.19F WCI -15
S. S. MARIE    MOCLDY     0 -12  57 NW3       30.22F
$$
MIZ004>006-011>014-085-012300-
CENTRAL UPPER MICHIGAN

CITY           SKY/WX    TMP DP  RH WIND       PRES   REMARKS
MANISTIQUE     CLOUDY     5  -7  57 MISG      30.20F
ESCANABA       CLOUDY     9   0  66 NE8       30.19F WCI  -4
MENOMINEE      CLOUDY     9  -4  56 NE18      30.15F WCI -10
SAWYER-GWINN   LGT SNOW   9   1  72 NE9G18    30.16F VSB 1   WCI  -5
$$
MIZ001>003-009>011-084-012300-
WESTERN UPPER MICHIGAN

CITY           SKY/WX    TMP DP  RH WIND       PRES   REMARKS
IRON MOUNTAIN  CLOUDY    10   0  63 N12G21    30.14F WCI  -5
HOUGHTON       LGT SNOW   7  -1  70 N9        30.23F WCI  -7
COPPER HARBOR    N/A      9   1  70 N15       30.27F WCI  -8
IRONWOOD       CLOUDY    10   3  72 NE6       30.18F WCI   1
$$

ABBREVIATIONS USED IN REMARKS
   TC - TEMPERATURE IN CELSIUS
  WCI - WIND CHILL INDEX
   HX - HEAT INDEX
  VSB - VISIBILITY




USA.gov is the U.S. government's official web portal to all federal, state and local government web resources and services.